Regional Weather Roundup
Issued by NWS

Home | Current Version | Previous Version | Text Only | Print | Product List | Glossary On
Versions: 1 2 3 4 5 6 7 8 9 10 11 12 13 14 15 16 17 18 19 20 21 22 23 24 25 26 27 28 29 30 31 32 33 34 35 36 37 38 39 40 41 42 43 44 45 46 47 48 49 50
000
ASUS43 KLMK 230802
RWRKY
KENTUCKY REGIONAL WEATHER ROUNDUP
NATIONAL WEATHER SERVICE LOUISVILLE KY
400 AM EDT SAT AUG 23 2014

NOTE "FAIR" INDICATES FEW OR NO CLOUDS BELOW 12,000 FEET
WITH NO SIGNIFICANT WEATHER AND/OR OBSTRUCTIONS TO VISIBILITY.

KYZ001>023-026-027-061>063-070>075-230900-
WESTERN AND SOUTH CENTRAL KENTUCKY

CITY           SKY/WX    TMP DP  RH WIND       PRES   REMARKS
PADUCAH        CLEAR     80  75  84 SW6       29.95F
HENDERSON      MOCLDY    75  72  88 SE7       29.96S
OWENSBORO      CLOUDY    74  74 100 S9        29.99S
HOPKINSVILLE   PTCLDY    78  78 100 S3        29.99S
BOWLING GREEN  HVY RAIN  78  74  87 NW6       30.00S FOG
GLASGOW        CLOUDY    75  75 100 CALM      30.00S
$$

KYZ024-025-028>034-038-045-046-053-230900-
NORTH CENTRAL KENTUCKY

CITY           SKY/WX    TMP DP  RH WIND       PRES   REMARKS
LOUISVILLE/SDF CLOUDY    75  72  90 CALM      29.98S
LOUISVILLE/LOU MOCLDY    74  72  93 E3        29.98F
FORT KNOX      CLOUDY    72  72 100 S2        29.98F
$$

KYZ035>037-039>044-047>052-055>060-089>105-230900-
NORTHEAST KENTUCKY

CITY           SKY/WX    TMP DP  RH WIND       PRES   REMARKS
LEXINGTON      PTCLDY    72  69  90 CALM      30.01S FOG
COVINGTON      CLEAR     73  70  90 CALM      29.99S FOG
FRANKFORT      CLEAR     70  69  97 CALM      29.99S
$$

KYZ054-064>069-076>088-106>120-230900-
SOUTHEAST KENTUCKY

CITY           SKY/WX    TMP DP  RH WIND       PRES   REMARKS
JACKSON        PTCLDY    70  68  93 CALM      30.01F
LONDON         MOCLDY    76  72  87 NW3       30.02F
SOMERSET       CLEAR     73  72  94 CALM      30.03S
MIDDLESBORO    MOCLDY    72  71  97 CALM      30.02S
MONTICELLO     PTSUNNY   72  72 100 CALM      30.03S FOG
$$



USA.gov is the U.S. government's official web portal to all federal, state and local government web resources and services.